Change the Weather History Date:

Sunday, September 9, 2012

  Actual Average Record
Temperature  
Mean Temperature 73 °F 65 °F  
Max Temperature 88 °F 81 °F 99 °F (2011)
Min Temperature 57 °F 50 °F 31 °F (1970)
Degree Days  
Heating Degree Days 0 3  
Month to date heating degree days 2 19  
Since 1 July heating degree days 21 50  
Cooling Degree Days 8 3  
Month to date cooling degree days 21 33  
Year to date cooling degree days 602 639  
Growing Degree Days 25 (Base 50)    
Moisture  
Dew Point 44 °F    
Average Humidity 43    
Maximum Humidity 73    
Minimum Humidity 13    
Precipitation  
Precipitation 0.01 in 0.02 in 0.38 in (1952)
Month to date precipitation 0.01 0.14  
Year to date precipitation 10.77 9.16  
Sea Level Pressure  
Sea Level Pressure 29.74 in    
Wind  
Wind Speed 6 mph (SW)    
Max Wind Speed 16 mph    
Max Gust Speed 23 mph    
Visibility 10 miles    
Events Rain    
T = Trace of Precipitation, MM = Missing Value Source: NWS Daily Summary

Daily Weather History Graph

Daily Weather History Graph

Search for Another Location

Airport or City:

Trip Planner

Search our weather history database for the weather conditions in past years. The results will help you decide how hot, cold, wet, or windy it might be!

Date:

Astronomy

Sep. 09, 2012 Rise Set
Actual Time 6:27 AM PDT 7:22 PM PDT
Civil Twilight 5:55 AM PDT 7:53 PM PDT
Nautical Twilight 5:17 AM PDT 8:31 PM PDT
Astronomical Twilight 4:36 AM PDT 9:11 PM PDT
Moon No Moon Rise 3:32 PM PDT (9/9)
Length of Visible Light 13h 58m
Length of Day
12h 54m
Last Quarter, 38% of the Moon is Illuminated
Sep 9
Last Quarter
Sep 15
New
Sep 22
First Quarter
Sep 29
Full
Oct 8
Last Quarter

Hourly Weather History & Observations

Time (PDT) Temp. Dew Point Humidity Pressure Visibility Wind Dir Wind Speed Gust Speed Precip Events Conditions
12:53 AM 64.9 °F 54.0 °F 68% 29.83 in 10.0 mi WNW 5.8 mph - 0.00 in   Clear
1:53 AM 64.0 °F 54.0 °F 70% 29.81 in 10.0 mi WNW 4.6 mph - N/A   Clear
2:53 AM 63.0 °F 54.0 °F 72% 29.79 in 10.0 mi Calm Calm - N/A   Clear
3:53 AM 63.0 °F 54.0 °F 72% 29.80 in 10.0 mi Calm Calm - N/A   Partly Cloudy
4:53 AM 64.9 °F 55.0 °F 70% 29.78 in 10.0 mi East 6.9 mph - N/A   Clear
5:53 AM 64.0 °F 55.0 °F 73% 29.78 in 10.0 mi West 4.6 mph - 0.00 in   Clear
6:53 AM 64.0 °F 55.0 °F 73% 29.78 in 10.0 mi ESE 4.6 mph - N/A   Partly Cloudy
7:53 AM 64.9 °F 55.0 °F 70% 29.77 in 10.0 mi West 3.5 mph - N/A   Mostly Cloudy
8:53 AM 66.0 °F 55.9 °F 70% 29.76 in 10.0 mi East 5.8 mph - N/A   Scattered Clouds
9:53 AM 70.0 °F 55.0 °F 59% 29.75 in 10.0 mi SW 8.1 mph - 0.00 in   Partly Cloudy
10:53 AM 73.9 °F 53.1 °F 48% 29.75 in 10.0 mi SE 6.9 mph - N/A   Clear
11:53 AM 80.1 °F 52.0 °F 38% 29.74 in 10.0 mi South 9.2 mph - N/A   Clear
12:53 PM 82.9 °F 46.9 °F 28% 29.71 in 10.0 mi SSW 11.5 mph - N/A   Clear
1:53 PM 84.9 °F 42.1 °F 22% 29.69 in 10.0 mi SW 8.1 mph 17.3 mph N/A   Clear
2:53 PM 86.0 °F 33.1 °F 15% 29.67 in 10.0 mi South 10.4 mph - N/A   Clear
3:53 PM 87.1 °F 30.9 °F 13% 29.67 in 10.0 mi SSW 8.1 mph - N/A   Clear
4:53 PM 84.9 °F 34.0 °F 16% 29.66 in 10.0 mi SSW 12.7 mph - N/A   Clear
5:53 PM 82.0 °F 36.0 °F 19% 29.67 in 10.0 mi SSW 8.1 mph - N/A   Clear
6:53 PM 73.9 °F 30.0 °F 20% 29.69 in 10.0 mi NW 8.1 mph - N/A   Clear
7:53 PM 73.9 °F 30.0 °F 20% 29.71 in 10.0 mi Calm Calm - N/A   Clear
8:53 PM 71.1 °F 27.0 °F 19% 29.73 in 10.0 mi WNW 8.1 mph - N/A   Clear
9:53 PM 70.0 °F 28.9 °F 22% 29.76 in 10.0 mi NNW 11.5 mph 19.6 mph N/A   Clear
10:53 PM 64.9 °F 32.0 °F 29% 29.77 in 10.0 mi North 4.6 mph - N/A   Clear
11:53 PM 62.1 °F 43.0 °F 50% 29.78 in 10.0 mi Calm Calm - 0.00 in Rain Light Rain